カタログに戻る

STARLINK-34560

運用中通信VLEO
NORAD 64700·PAYLOAD·🇺🇸 United States

打ち上げ Jun 28, 2025 から Vandenberg Space Force Base

Loading…

次のパス (今後24時間)

TLE

最新Source: CelesTrak SupGP

元期: Sep 14, 2026, 21:11 UTC

1 64700C 25142E   26257.88312500  .00003037  00000+0  10561-3 0  2575
2 64700  70.0014 195.7431 0002929 265.0665  28.1989 15.29587406    18

AllMySatでSTARLINK-34560をリアルタイム追跡

Download on the App Store